M I D A S
Marine Information and Data Acquisition System
Tripno 2141 of the Zeeleeuw from 2011-07-08 05:02:26 to 2011-07-08 15:22:40
Back to CruiseResearch ActivitiesStationsMapUnderway DataData graphs

EquipmentUnitsComments
TimeDGPSUTC
LatitudeDGPSDM.mWGS84
LongitudeDGPSDM.mWGS84
SpeedMeteo Stationm/sRelative wind speed
DirectionMeteo StationdegRelative wind direction
TemperatureMeteo Stationdeg CelciusAir temperature
PressureMeteo StationPaAtmospheric pressure
HumidityMeteo Station%Relative humidity
Missing or incorrect values are displayed as -999
Metereological data collected by the RV Zeeleeuw from 2011-07-08 05:06:23 to 2011-07-08 15:38:19
                                                                                    Next 1000 lines
Time Latitude Longitude Speed Direction Temperature Pressure Humidity
2011-07-08 05:06:33 51°13.637 2°56.012 -999 8 14.1 100600 49
2011-07-08 05:06:38 51°13.638 2°56.007 4.1 22 14.1 100600 49
2011-07-08 05:06:43 51°13.64 2°56.001 1.4 360 14.1 100600 50
2011-07-08 05:06:48 51°13.642 2°55.994 2.3 14 14.1 100600 50
2011-07-08 05:06:54 51°13.644 2°55.985 0.1 31 14.1 100590 50
2011-07-08 05:06:58 51°13.646 2°55.978 0.1 34 14.1 100590 50
2011-07-08 05:07:03 51°13.648 2°55.969 0.1 31 14.1 100600 50
2011-07-08 05:07:08 51°13.651 2°55.96 0.1 36 14.1 100600 50
2011-07-08 05:07:13 51°13.653 2°55.95 -999 19 14.1 100600 50
2011-07-08 05:07:18 51°13.656 2°55.941 -999 41 14.1 100600 50
2011-07-08 05:07:23 51°13.658 2°55.931 -999 25 14.1 100600 49
2011-07-08 05:07:28 51°13.661 2°55.921 -999 26 14.1 100600 49
2011-07-08 05:07:33 51°13.663 2°55.911 4.1 35 14.1 100600 49
2011-07-08 05:07:39 51°13.666 2°55.899 1.1 37 14.1 100600 49
2011-07-08 05:07:43 51°13.668 2°55.891 3.5 24 14.1 100600 49
2011-07-08 05:07:49 51°13.671 2°55.878 2.4 24 14.1 100600 49
2011-07-08 05:07:54 51°13.673 2°55.868 2.5 41 14.1 100600 49
2011-07-08 05:07:59 51°13.676 2°55.858 3.4 39 14.1 100600 49
2011-07-08 05:08:03 51°13.677 2°55.85 2.8 35 14.1 100590 50
2011-07-08 05:08:09 51°13.68 2°55.839 3.5 44 14.1 100590 50
2011-07-08 05:08:14 51°13.682 2°55.83 3 27 14.1 100590 48
2011-07-08 05:08:19 51°13.684 2°55.821 4.1 33 14.1 100590 48
2011-07-08 05:08:23 51°13.686 2°55.813 0.9 26 14.1 100590 50
2011-07-08 05:08:29 51°13.688 2°55.803 0.1 31 14.1 100590 50
2011-07-08 05:08:34 51°13.689 2°55.794 0.1 34 14.1 100590 49
2011-07-08 05:08:39 51°13.691 2°55.785 -999 28 14.1 100590 49
2011-07-08 05:08:43 51°13.692 2°55.779 -999 30 14.1 100590 49
2011-07-08 05:08:48 51°13.693 2°55.77 -999 36 14.1 100590 49
2011-07-08 05:08:54 51°13.694 2°55.761 0.1 35 14.1 100600 49
2011-07-08 05:08:58 51°13.694 2°55.755 0.1 28 14.1 100600 49
2011-07-08 05:09:03 51°13.695 2°55.749 0.1 36 14.1 100590 49
2011-07-08 05:09:08 51°13.695 2°55.743 -999 36 14.1 100590 49
2011-07-08 05:09:13 51°13.695 2°55.74 -999 31 14.1 100600 50
2011-07-08 05:09:19 51°13.695 2°55.737 -999 21 14.1 100600 50
2011-07-08 05:09:24 51°13.695 2°55.736 3.4 28 14.1 100600 50
2011-07-08 05:09:28 51°13.696 2°55.735 3 35 14.1 100600 50
2011-07-08 05:09:33 51°13.696 2°55.735 0.2 26 14.1 100600 50
2011-07-08 05:09:38 51°13.697 2°55.735 0.1 36 14.1 100600 50
2011-07-08 05:09:43 51°13.698 2°55.735 0.1 38 14.1 100590 49
2011-07-08 05:09:48 51°13.699 2°55.737 0.1 37 14.1 100590 49
2011-07-08 05:09:52 51°13.701 2°55.738 0.1 39 14.1 100600 50
2011-07-08 05:09:57 51°13.704 2°55.74 -999 78 14.1 100600 50
2011-07-08 05:10:02 51°13.706 2°55.741 0.7 21 14.1 100600 50
2011-07-08 05:10:07 51°13.709 2°55.742 0.1 78 14.1 100600 50
2011-07-08 05:10:12 51°13.712 2°55.743 0.1 24 14.1 100590 50
2011-07-08 05:10:16 51°13.714 2°55.744 -999 78 14.1 100590 50
2011-07-08 05:10:21 51°13.718 2°55.744 -999 24 14.1 100600 49
2011-07-08 05:10:26 51°13.722 2°55.744 -999 78 14.1 100600 49
2011-07-08 05:10:31 51°13.727 2°55.742 -999 24 14.1 100600 50
2011-07-08 05:10:36 51°13.731 2°55.74 -999 78 14.1 100600 50
2011-07-08 05:10:40 51°13.734 2°55.737 -999 25 14.1 100600 49
2011-07-08 05:10:46 51°13.74 2°55.734 -999 78 14.1 100600 49
2011-07-08 05:10:51 51°13.744 2°55.73 -999 23 14.1 100600 48
2011-07-08 05:10:56 51°13.749 2°55.727 -999 78 14.1 100600 48
2011-07-08 05:11:00 51°13.753 2°55.723 -999 267 14.1 100600 50
2011-07-08 05:11:05 51°13.759 2°55.718 -999 282 14.1 100600 50
2011-07-08 05:11:10 51°13.765 2°55.711 -999 24 14.1 100600 49
2011-07-08 05:11:15 51°13.772 2°55.705 -999 282 14.1 100600 49
2011-07-08 05:11:20 51°13.779 2°55.698 -999 263 14.1 100600 50
2011-07-08 05:11:24 51°13.785 2°55.692 -999 282 14.1 100600 50
2011-07-08 05:11:29 51°13.793 2°55.685 -999 264 14.1 100600 50
2011-07-08 05:11:34 51°13.801 2°55.676 -999 282 14.1 100600 50
2011-07-08 05:11:40 51°13.811 2°55.666 -999 25 14.1 100600 50
2011-07-08 05:11:45 51°13.82 2°55.657 -999 78 14.1 100600 50
2011-07-08 05:11:49 51°13.828 2°55.65 -999 25 14.1 100600 50
2011-07-08 05:11:55 51°13.839 2°55.64 -999 282 14.1 100600 50
2011-07-08 05:12:00 51°13.849 2°55.632 -999 250 14.1 100600 50
2011-07-08 05:12:05 51°13.86 2°55.623 -999 282 14.1 100600 50
2011-07-08 05:12:09 51°13.869 2°55.616 -999 248 14.1 100600 49
2011-07-08 05:12:14 51°13.88 2°55.608 -999 282 14.1 100600 49
2011-07-08 05:12:19 51°13.892 2°55.599 -999 24 14.1 100600 50
2011-07-08 05:12:26 51°13.908 2°55.587 -999 282 14.1 100600 50
2011-07-08 05:12:29 51°13.915 2°55.582 -999 24 14.1 100600 50
2011-07-08 05:12:35 51°13.93 2°55.571 -999 282 14.1 100600 50
2011-07-08 05:12:40 51°13.942 2°55.562 -999 251 14.1 100600 50
2011-07-08 05:12:45 51°13.954 2°55.553 -999 282 14.1 100600 50
2011-07-08 05:12:50 51°13.966 2°55.543 -999 259 14.1 100600 50
2011-07-08 05:12:54 51°13.976 2°55.536 -999 282 14.1 100600 50
2011-07-08 05:13:00 51°13.991 2°55.526 -999 253 14.1 100600 49
2011-07-08 05:13:05 51°14.004 2°55.517 -999 282 14.1 100600 49
2011-07-08 05:13:10 51°14.017 2°55.508 -999 24 14.1 100590 50
2011-07-08 05:13:14 51°14.027 2°55.501 -999 282 14.1 100590 50
2011-07-08 05:13:20 51°14.043 2°55.49 -999 23 14.1 100600 50
2011-07-08 05:13:25 51°14.055 2°55.481 -999 282 14.1 100600 50
2011-07-08 05:13:30 51°14.068 2°55.472 -999 24 14.1 100600 48
2011-07-08 05:13:34 51°14.078 2°55.464 -999 282 14.1 100600 48
2011-07-08 05:13:40 51°14.093 2°55.453 -999 251 14.1 100600 50
2011-07-08 05:13:45 51°14.106 2°55.443 -999 282 14.1 100600 50
2011-07-08 05:13:50 51°14.119 2°55.434 -999 255 14.1 100600 50
2011-07-08 05:13:55 51°14.132 2°55.423 -999 281 14.1 100600 50
2011-07-08 05:14:00 51°14.145 2°55.414 -999 249 14.1 100600 48
2011-07-08 05:14:05 51°14.157 2°55.403 -999 282 14.1 100600 48
2011-07-08 05:14:10 51°14.17 2°55.392 -999 23 14.1 100600 49
2011-07-08 05:14:15 51°14.183 2°55.382 -999 282 14.1 100600 49
2011-07-08 05:14:19 51°14.194 2°55.373 -999 24 14.1 100600 49
2011-07-08 05:14:25 51°14.209 2°55.359 -999 282 14.1 100600 49
2011-07-08 05:14:30 51°14.222 2°55.348 -999 23 14.1 100590 49
2011-07-08 05:14:35 51°14.235 2°55.336 -999 282 14.1 100590 49
2011-07-08 05:14:39 51°14.246 2°55.326 -999 24 14.1 100600 50
2011-07-08 05:14:45 51°14.261 2°55.311 4.9 277 14.1 100600 50
2011-07-08 05:14:49 51°14.272 2°55.301 6.4 19 14.1 100590 50
2011-07-08 05:14:55 51°14.287 2°55.285 4.5 282 14.1 100590 50
2011-07-08 05:14:59 51°14.297 2°55.274 3.9 24 14.1 100590 50
2011-07-08 05:15:05 51°14.313 2°55.258 3.6 279 14.1 100590 50
2011-07-08 05:15:10 51°14.325 2°55.244 2.1 21 14.1 100590 50
2011-07-08 05:15:15 51°14.339 2°55.23 2.7 282 14.1 100590 50
2011-07-08 05:15:19 51°14.349 2°55.218 4.2 21 14.1 100590 50
2011-07-08 05:15:25 51°14.366 2°55.201 5.7 285 14.1 100590 50
2011-07-08 05:15:30 51°14.379 2°55.187 3.7 25 14.1 100590 50
2011-07-08 05:15:35 51°14.392 2°55.173 3.1 282 14.1 100590 50
2011-07-08 05:15:39 51°14.403 2°55.161 4.3 26 14.1 100590 50
2011-07-08 05:15:44 51°14.417 2°55.147 6 284 14.1 100590 50
2011-07-08 05:15:50 51°14.434 2°55.13 4.1 26 14.1 100590 50
2011-07-08 05:15:55 51°14.448 2°55.115 3.6 285 14.1 100590 50
2011-07-08 05:15:59 51°14.459 2°55.103 5.1 248 14.1 100590 49
2011-07-08 05:16:05 51°14.476 2°55.086 3.4 285 14.1 100590 49
2011-07-08 05:16:10 51°14.49 2°55.071 4.2 28 14.1 100590 49
2011-07-08 05:16:15 51°14.504 2°55.055 3.8 277 14.1 100590 49
2011-07-08 05:16:19 51°14.516 2°55.041 5.6 23 14.1 100580 49
2011-07-08 05:16:25 51°14.533 2°55.024 6.3 280 14.1 100580 49
2011-07-08 05:16:30 51°14.549 2°55.009 5.8 27 14.2 100590 50
2011-07-08 05:16:35 51°14.565 2°54.997 5.1 281 14.2 100590 50
2011-07-08 05:16:39 51°14.578 2°54.987 4.7 20 14.1 100600 49
2011-07-08 05:16:45 51°14.598 2°54.973 5 283 14.1 100600 49
2011-07-08 05:16:49 51°14.611 2°54.963 4.6 250 14.2 100590 49
2011-07-08 05:16:55 51°14.631 2°54.949 3.8 281 14.2 100590 49
2011-07-08 05:16:59 51°14.643 2°54.938 3.3 256 14.2 100580 49
2011-07-08 05:17:05 51°14.663 2°54.922 3.5 285 14.2 100580 49
2011-07-08 05:17:10 51°14.679 2°54.909 4.2 249 14.2 100590 49
2011-07-08 05:17:15 51°14.694 2°54.895 5.4 280 14.2 100590 49
2011-07-08 05:17:19 51°14.707 2°54.884 4.6 246 14.2 100590 49
2011-07-08 05:17:25 51°14.724 2°54.865 5.3 285 14.2 100590 49
2011-07-08 05:17:30 51°14.739 2°54.849 5.6 19 14.2 100590 50
2011-07-08 05:17:35 51°14.754 2°54.835 5.6 282 14.2 100590 50
2011-07-08 05:17:39 51°14.767 2°54.823 6.4 246 14.2 100590 49
2011-07-08 05:17:44 51°14.782 2°54.809 7 280 14.2 100590 49
2011-07-08 05:17:49 51°14.798 2°54.794 6 252 14.2 100590 49
2011-07-08 05:17:55 51°14.816 2°54.776 5.9 279 14.2 100590 49
2011-07-08 05:17:59 51°14.828 2°54.763 5.6 25 14.2 100590 50
2011-07-08 05:18:05 51°14.845 2°54.744 6.1 281 14.2 100590 50
2011-07-08 05:18:10 51°14.86 2°54.728 6.5 25 14.2 100590 50
2011-07-08 05:18:15 51°14.875 2°54.713 5.1 286 14.2 100590 50
2011-07-08 05:18:19 51°14.886 2°54.7 6.5 246 14.2 100590 49
2011-07-08 05:18:25 51°14.904 2°54.681 5.4 278 14.2 100590 49
2011-07-08 05:18:30 51°14.919 2°54.666 6.4 251 14.3 100590 50
2011-07-08 05:18:35 51°14.934 2°54.65 4 279 14.3 100590 50
2011-07-08 05:18:39 51°14.946 2°54.638 5.6 24 14.3 100580 50
2011-07-08 05:18:45 51°14.964 2°54.62 4.9 278 14.3 100580 50
2011-07-08 05:18:50 51°14.979 2°54.604 5 22 14.3 100590 48
2011-07-08 05:18:55 51°14.994 2°54.588 6.2 284 14.3 100590 48
2011-07-08 05:19:00 51°15.009 2°54.572 5.7 21 14.3 100590 49
2011-07-08 05:19:05 51°15.023 2°54.556 5.5 284 14.3 100590 49
2011-07-08 05:19:10 51°15.038 2°54.54 5.2 22 14.3 100580 50
2011-07-08 05:19:15 51°15.052 2°54.523 5.8 282 14.3 100580 50
2011-07-08 05:19:20 51°15.066 2°54.505 6.5 25 14.3 100590 49
2011-07-08 05:19:25 51°15.08 2°54.488 5.7 279 14.3 100590 49
2011-07-08 05:19:30 51°15.094 2°54.471 5.9 27 14.4 100590 50
2011-07-08 05:19:35 51°15.109 2°54.455 5.3 283 14.4 100590 50
2011-07-08 05:19:39 51°15.121 2°54.442 7.1 254 14.4 100590 49
2011-07-08 05:19:45 51°15.139 2°54.423 6.9 282 14.4 100590 49
2011-07-08 05:19:50 51°15.154 2°54.407 6.8 250 14.4 100580 49
2011-07-08 05:19:55 51°15.169 2°54.392 7.1 280 14.4 100580 49
2011-07-08 05:19:59 51°15.181 2°54.38 8.8 259 14.4 100580 49
2011-07-08 05:20:04 51°15.196 2°54.365 8 286 14.4 100580 49
2011-07-08 05:20:10 51°15.215 2°54.346 7.1 254 14.4 100590 50
2011-07-08 05:20:15 51°15.23 2°54.33 8.7 279 14.4 100590 50
2011-07-08 05:20:19 51°15.242 2°54.318 8 254 14.4 100590 50
2011-07-08 05:20:24 51°15.256 2°54.302 8.2 280 14.4 100590 50
2011-07-08 05:20:30 51°15.274 2°54.282 7.1 253 14.4 100590 50
2011-07-08 05:20:35 51°15.289 2°54.266 7.1 280 14.4 100590 50
2011-07-08 05:20:39 51°15.3 2°54.252 7.5 255 14.4 100590 49
2011-07-08 05:20:45 51°15.317 2°54.232 7.4 285 14.4 100590 49
2011-07-08 05:20:49 51°15.328 2°54.219 7 249 14.4 100590 49
2011-07-08 05:20:55 51°15.345 2°54.198 6.6 279 14.4 100590 49
2011-07-08 05:20:59 51°15.357 2°54.184 7.8 251 14.4 100590 49
2011-07-08 05:21:05 51°15.373 2°54.164 6.7 283 14.4 100590 49
2011-07-08 05:21:10 51°15.387 2°54.146 6.9 248 14.4 100600 50
2011-07-08 05:21:15 51°15.402 2°54.129 7.1 280 14.4 100600 50
2011-07-08 05:21:19 51°15.413 2°54.116 6.7 249 14.4 100580 50
2011-07-08 05:21:25 51°15.431 2°54.096 6.8 281 14.4 100580 50
2011-07-08 05:21:30 51°15.445 2°54.08 6.5 20 14.4 100590 49
2011-07-08 05:21:35 51°15.46 2°54.063 7.9 285 14.4 100590 49
2011-07-08 05:21:39 51°15.472 2°54.051 5.7 247 14.4 100590 49
2011-07-08 05:21:45 51°15.489 2°54.031 6.6 278 14.4 100590 49
2011-07-08 05:21:49 51°15.501 2°54.018 7.5 250 14.5 100580 49
2011-07-08 05:21:55 51°15.517 2°53.997 8.6 284 14.5 100580 49
2011-07-08 05:21:59 51°15.528 2°53.983 8.7 253 14.5 100590 49
2011-07-08 05:22:05 51°15.544 2°53.961 6.2 278 14.5 100590 49
2011-07-08 05:22:10 51°15.558 2°53.943 7.9 19 14.5 100580 50
2011-07-08 05:22:15 51°15.571 2°53.924 7.1 280 14.5 100580 50
2011-07-08 05:22:19 51°15.581 2°53.909 7 251 14.5 100580 50
2011-07-08 05:22:25 51°15.597 2°53.886 6.9 283 14.5 100580 50
2011-07-08 05:22:30 51°15.609 2°53.867 8.9 25 14.5 100580 50
2011-07-08 05:22:35 51°15.622 2°53.847 7.4 280 14.5 100580 50
2011-07-08 05:22:39 51°15.632 2°53.832 7.9 251 14.5 100580 49
2011-07-08 05:22:45 51°15.647 2°53.808 8.7 286 14.5 100580 49
2011-07-08 05:22:49 51°15.657 2°53.792 7.1 250 14.5 100580 50
2011-07-08 05:22:55 51°15.672 2°53.769 6.3 284 14.5 100580 50
2011-07-08 05:22:59 51°15.682 2°53.753 7 19 14.5 100570 49
2011-07-08 05:23:05 51°15.697 2°53.73 6.8 279 14.5 100570 49
2011-07-08 05:23:10 51°15.709 2°53.711 7.6 252 14.5 100580 50
2011-07-08 05:23:15 51°15.722 2°53.692 7 278 14.5 100580 50
2011-07-08 05:23:19 51°15.733 2°53.677 6.5 21 14.5 100580 50
2011-07-08 05:23:25 51°15.748 2°53.654 6.3 282 14.5 100580 50
2011-07-08 05:23:29 51°15.759 2°53.64 8.6 19 14.6 100570 50
2011-07-08 05:23:35 51°15.775 2°53.618 6.7 280 14.6 100570 50
2011-07-08 05:23:39 51°15.786 2°53.604 7.4 247 14.5 100580 50
2011-07-08 05:23:45 51°15.803 2°53.582 9.5 281 14.5 100580 50
2011-07-08 05:23:49 51°15.813 2°53.568 8.5 254 14.5 100580 49
2011-07-08 05:23:55 51°15.83 2°53.546 7.7 284 14.5 100580 49
2011-07-08 05:23:59 51°15.841 2°53.532 8.2 255 14.5 100580 49
2011-07-08 05:24:05 51°15.857 2°53.51 8.6 281 14.5 100580 49
2011-07-08 05:24:10 51°15.871 2°53.493 7.3 251 14.6 100580 48
2011-07-08 05:24:15 51°15.884 2°53.474 9.1 282 14.6 100580 48
2011-07-08 05:24:19 51°15.895 2°53.46 9.5 253 14.5 100590 50
2011-07-08 05:24:25 51°15.911 2°53.437 8.4 282 14.5 100590 50
2011-07-08 05:24:30 51°15.924 2°53.42 7.3 251 14.6 100580 50
2011-07-08 05:24:35 51°15.938 2°53.402 8.3 285 14.6 100580 50
2011-07-08 05:24:39 51°15.949 2°53.388 8 252 14.6 100580 48
2011-07-08 05:24:45 51°15.966 2°53.367 9 280 14.6 100580 48
2011-07-08 05:24:50 51°15.98 2°53.35 7.7 254 14.6 100590 49
2011-07-08 05:24:55 51°15.994 2°53.334 7.5 287 14.6 100590 49
2011-07-08 05:24:59 51°16.006 2°53.321 7.3 257 14.6 100580 50
2011-07-08 05:25:04 51°16.02 2°53.305 7.8 279 14.6 100580 50
2011-07-08 05:25:10 51°16.038 2°53.286 7.3 253 14.6 100580 50
2011-07-08 05:25:15 51°16.053 2°53.271 7.3 279 14.6 100580 50
2011-07-08 05:25:19 51°16.066 2°53.259 8.1 251 14.7 100580 49
2011-07-08 05:25:25 51°16.085 2°53.242 6 283 14.7 100580 49
2011-07-08 05:25:30 51°16.1 2°53.228 6 257 14.7 100590 49
2011-07-08 05:25:35 51°16.117 2°53.216 5.6 280 14.7 100590 49
2011-07-08 05:25:39 51°16.13 2°53.206 6.2 256 14.7 100580 50
2011-07-08 05:25:45 51°16.15 2°53.191 5.7 285 14.7 100580 50
2011-07-08 05:25:49 51°16.163 2°53.181 4.8 257 14.7 100590 50
2011-07-08 05:25:55 51°16.183 2°53.167 6.7 285 14.7 100590 50
2011-07-08 05:25:59 51°16.196 2°53.157 5.7 253 14.7 100580 50
2011-07-08 05:26:05 51°16.216 2°53.143 6.9 283 14.7 100580 50
2011-07-08 05:26:10 51°16.232 2°53.131 4.7 249 14.8 100580 50
2011-07-08 05:26:15 51°16.249 2°53.119 7.3 280 14.8 100580 50
2011-07-08 05:26:19 51°16.263 2°53.111 6.6 252 14.8 100580 50
2011-07-08 05:26:25 51°16.283 2°53.096 5.7 285 14.8 100580 50
2011-07-08 05:26:30 51°16.299 2°53.085 7 259 14.8 100580 50
2011-07-08 05:26:35 51°16.316 2°53.072 6.5 284 14.8 100580 50
2011-07-08 05:26:39 51°16.329 2°53.063 6.5 256 14.8 100580 49
2011-07-08 05:26:44 51°16.345 2°53.05 7.2 285 14.8 100580 49
2011-07-08 05:26:50 51°16.365 2°53.036 6.4 255 14.8 100580 49
2011-07-08 05:26:55 51°16.382 2°53.023 7.5 281 14.8 100580 49
2011-07-08 05:26:59 51°16.395 2°53.013 9 257 14.8 100590 49
2011-07-08 05:27:04 51°16.411 2°53.001 8.1 279 14.8 100590 49
2011-07-08 05:27:10 51°16.431 2°52.985 7.1 260 14.8 100580 50
2011-07-08 05:27:15 51°16.447 2°52.973 8.6 286 14.8 100580 50
2011-07-08 05:27:19 51°16.46 2°52.963 7.5 256 14.8 100580 49
2011-07-08 05:27:25 51°16.479 2°52.948 8.5 280 14.8 100580 49
2011-07-08 05:27:30 51°16.496 2°52.935 7.7 254 14.8 100580 49
2011-07-08 05:27:35 51°16.512 2°52.922 6.8 285 14.8 100580 49
2011-07-08 05:27:39 51°16.524 2°52.912 6.9 257 14.8 100580 49
2011-07-08 05:27:44 51°16.541 2°52.899 8.3 286 14.8 100580 49
2011-07-08 05:27:49 51°16.556 2°52.885 6.4 253 14.7 100580 50
2011-07-08 05:27:55 51°16.575 2°52.869 6.7 280 14.7 100580 50
2011-07-08 05:27:59 51°16.588 2°52.858 6.9 258 14.7 100580 49
2011-07-08 05:28:05 51°16.607 2°52.841 7.2 280 14.7 100580 49
2011-07-08 05:28:10 51°16.623 2°52.828 6.1 261 14.7 100580 49
2011-07-08 05:28:15 51°16.638 2°52.815 4.8 279 14.7 100580 49
2011-07-08 05:28:19 51°16.651 2°52.804 8.3 258 14.7 100580 49
2011-07-08 05:28:25 51°16.67 2°52.788 8.1 280 14.7 100580 49
2011-07-08 05:28:30 51°16.686 2°52.774 8 256 14.7 100580 49
2011-07-08 05:28:35 51°16.702 2°52.761 5.7 279 14.7 100580 49
2011-07-08 05:28:39 51°16.715 2°52.75 5.9 262 14.7 100590 49
2011-07-08 05:28:45 51°16.734 2°52.735 5.2 280 14.7 100590 49
2011-07-08 05:28:50 51°16.75 2°52.722 5.7 250 14.7 100580 49
2011-07-08 05:28:55 51°16.766 2°52.71 7 285 14.7 100580 49
2011-07-08 05:28:59 51°16.78 2°52.7 7.2 253 14.7 100580 49
2011-07-08 05:29:04 51°16.796 2°52.688 6.7 280 14.7 100580 49
2011-07-08 05:29:10 51°16.816 2°52.674 7.3 258 14.7 100590 50
2011-07-08 05:29:15 51°16.833 2°52.662 6.3 279 14.7 100590 50
2011-07-08 05:29:19 51°16.846 2°52.653 5.8 264 14.7 100580 50
2011-07-08 05:29:25 51°16.866 2°52.638 5.7 286 14.7 100580 50
2011-07-08 05:29:30 51°16.883 2°52.627 6.9 254 14.7 100580 49
2011-07-08 05:29:35 51°16.899 2°52.615 6.2 280 14.7 100580 49
2011-07-08 05:29:39 51°16.913 2°52.606 6.4 259 14.7 100590 49
2011-07-08 05:29:44 51°16.929 2°52.594 6.8 278 14.7 100590 49
2011-07-08 05:29:49 51°16.946 2°52.582 6.2 259 14.7 100580 49
2011-07-08 05:29:55 51°16.966 2°52.567 6.7 282 14.7 100580 49
2011-07-08 05:29:59 51°16.979 2°52.557 5.6 257 14.8 100580 48
2011-07-08 05:30:05 51°16.999 2°52.541 7.3 286 14.8 100580 48
2011-07-08 05:30:10 51°17.015 2°52.528 6.4 261 14.8 100580 50
2011-07-08 05:30:15 51°17.031 2°52.515 5 285 14.8 100580 50
2011-07-08 05:30:19 51°17.044 2°52.504 5.5 260 14.8 100580 50
2011-07-08 05:30:25 51°17.063 2°52.488 5.3 277 14.8 100580 50
2011-07-08 05:30:30 51°17.079 2°52.474 5.4 259 14.8 100570 49
2011-07-08 05:30:35 51°17.095 2°52.461 5.9 281 14.8 100570 49
2011-07-08 05:30:39 51°17.108 2°52.449 5.2 254 14.8 100580 50
2011-07-08 05:30:45 51°17.127 2°52.433 5.8 286 14.8 100580 50
2011-07-08 05:30:49 51°17.139 2°52.422 7.6 255 14.8 100580 49
2011-07-08 05:30:55 51°17.159 2°52.406 8.5 280 14.8 100580 49
2011-07-08 05:30:59 51°17.172 2°52.395 9 257 14.8 100580 50
2011-07-08 05:31:04 51°17.188 2°52.381 8.7 284 14.8 100580 50
2011-07-08 05:31:10 51°17.207 2°52.365 6.2 254 14.8 100570 50
2011-07-08 05:31:15 51°17.223 2°52.351 5.5 282 14.8 100570 50
2011-07-08 05:31:19 51°17.236 2°52.341 6.8 258 14.8 100570 50
2011-07-08 05:31:25 51°17.255 2°52.324 6.5 280 14.8 100570 50
2011-07-08 05:31:30 51°17.271 2°52.311 9.6 258 14.8 100580 49
2011-07-08 05:31:35 51°17.287 2°52.297 7.8 285 14.8 100580 49
2011-07-08 05:31:39 51°17.3 2°52.287 7.7 261 14.9 100570 50
2011-07-08 05:31:44 51°17.317 2°52.274 7.8 -999 14.9 100570 50
2011-07-08 05:31:49 51°17.333 2°52.261 8.2 259 14.9 100580 49
2011-07-08 05:31:55 51°17.353 2°52.246 6.6 282 14.9 100580 49
2011-07-08 05:31:59 51°17.366 2°52.236 6.6 260 14.9 100580 50
2011-07-08 05:32:05 51°17.386 2°52.222 5.5 279 14.9 100580 50
2011-07-08 05:32:10 51°17.403 2°52.21 4.9 259 14.9 100580 48
2011-07-08 05:32:15 51°17.42 2°52.197 6.4 285 14.9 100580 48
2011-07-08 05:32:19 51°17.433 2°52.188 5.9 252 14.9 100580 50
2011-07-08 05:32:25 51°17.453 2°52.173 6.8 283 14.9 100580 50
2011-07-08 05:32:30 51°17.47 2°52.161 6.4 254 14.8 100580 49
2011-07-08 05:32:35 51°17.487 2°52.149 7.6 282 14.8 100580 49
2011-07-08 05:32:39 51°17.5 2°52.14 6.5 259 14.8 100570 47
2011-07-08 05:32:45 51°17.52 2°52.125 4.7 284 14.8 100570 47
2011-07-08 05:32:49 51°17.534 2°52.116 6.7 256 14.8 100570 50
2011-07-08 05:32:55 51°17.554 2°52.101 7.2 278 14.8 100570 50
2011-07-08 05:32:59 51°17.567 2°52.092 6 261 14.9 100560 49
2011-07-08 05:33:05 51°17.587 2°52.077 6.3 282 14.9 100560 49
2011-07-08 05:33:10 51°17.604 2°52.064 7.8 19 14.9 100570 50
2011-07-08 05:33:15 51°17.621 2°52.052 7.7 286 14.9 100570 50
2011-07-08 05:33:19 51°17.634 2°52.042 9.3 257 14.8 100570 50
2011-07-08 05:33:25 51°17.654 2°52.027 7.4 279 14.8 100570 50
2011-07-08 05:33:30 51°17.67 2°52.014 9.2 253 14.8 100570 50
2011-07-08 05:33:35 51°17.687 2°52.002 7.7 279 14.8 100570 50
2011-07-08 05:33:39 51°17.7 2°51.993 8.3 261 14.9 100580 50
2011-07-08 05:33:44 51°17.717 2°51.98 7.1 284 14.9 100580 50
2011-07-08 05:33:49 51°17.734 2°51.968 5.4 262 14.9 100570 50
2011-07-08 05:33:55 51°17.754 2°51.953 6.8 286 14.9 100570 50
2011-07-08 05:33:59 51°17.766 2°51.942 6.3 261 14.9 100570 50
2011-07-08 05:34:05 51°17.786 2°51.927 7.1 280 14.9 100570 50
2011-07-08 05:34:10 51°17.803 2°51.914 6.3 261 14.9 100580 50
2011-07-08 05:34:15 51°17.819 2°51.901 5.4 278 14.9 100580 50
2011-07-08 05:34:19 51°17.832 2°51.89 7.5 260 14.9 100560 50
2011-07-08 05:34:25 51°17.852 2°51.874 6 286 14.9 100560 50
2011-07-08 05:34:30 51°17.868 2°51.86 8.1 254 14.8 100570 49
2011-07-08 05:34:35 51°17.884 2°51.846 7.9 285 14.8 100570 49
2011-07-08 05:34:39 51°17.896 2°51.835 9.5 256 14.8 100560 49
2011-07-08 05:34:45 51°17.916 2°51.818 9.6 282 14.8 100560 49
2011-07-08 05:34:49 51°17.928 2°51.806 6.7 258 14.8 100570 48
2011-07-08 05:34:55 51°17.947 2°51.789 7.7 278 14.8 100570 48
2011-07-08 05:34:59 51°17.96 2°51.779 5.7 258 14.9 100570 50
2011-07-08 05:35:05 51°17.979 2°51.762 7.9 280 14.9 100570 50
2011-07-08 05:35:10 51°17.995 2°51.747 6.3 259 14.8 100560 49
2011-07-08 05:35:15 51°18.011 2°51.734 6.6 280 14.8 100560 49
2011-07-08 05:35:19 51°18.024 2°51.723 6.5 261 14.8 100570 48
2011-07-08 05:35:24 51°18.04 2°51.709 6.1 286 14.8 100570 48
2011-07-08 05:35:29 51°18.057 2°51.696 7.2 255 14.8 100570 50
2011-07-08 05:35:35 51°18.076 2°51.68 8.7 284 14.8 100570 50
2011-07-08 05:35:39 51°18.09 2°51.669 5.6 263 14.8 100570 49
2011-07-08 05:35:44 51°18.106 2°51.656 7.6 285 14.8 100570 49
2011-07-08 05:35:50 51°18.126 2°51.641 6.7 262 14.8 100560 50
2011-07-08 05:35:55 51°18.142 2°51.628 5.9 280 14.8 100560 50
2011-07-08 05:35:59 51°18.155 2°51.618 5.5 262 14.8 100570 49
2011-07-08 05:36:05 51°18.175 2°51.602 5.9 284 14.8 100570 49
2011-07-08 05:36:10 51°18.192 2°51.589 4.6 262 14.8 100570 50
2011-07-08 05:36:15 51°18.208 2°51.576 9 281 14.8 100570 50
2011-07-08 05:36:19 51°18.221 2°51.566 7.1 261 14.8 100570 49
2011-07-08 05:36:25 51°18.241 2°51.55 7.9 280 14.8 100570 49
2011-07-08 05:36:30 51°18.257 2°51.537 6.6 260 14.8 100560 49
2011-07-08 05:36:35 51°18.274 2°51.524 7.6 284 14.8 100560 49
2011-07-08 05:36:39 51°18.288 2°51.515 9.2 260 14.8 100560 49
2011-07-08 05:36:45 51°18.307 2°51.5 10.3 283 14.8 100560 49
2011-07-08 05:36:50 51°18.324 2°51.488 10.6 254 14.8 100570 50
2011-07-08 05:36:55 51°18.341 2°51.476 10.8 281 14.8 100570 50
2011-07-08 05:37:00 51°18.357 2°51.464 7.3 261 14.8 100570 50
2011-07-08 05:37:05 51°18.375 2°51.452 8.1 283 14.8 100570 50
2011-07-08 05:37:10 51°18.391 2°51.44 9.4 259 14.9 100560 50
2011-07-08 05:37:15 51°18.408 2°51.427 9.5 280 14.9 100560 50
2011-07-08 05:37:20 51°18.424 2°51.415 8.8 259 14.9 100560 50
2011-07-08 05:37:25 51°18.441 2°51.402 7.8 278 14.9 100560 50
2011-07-08 05:37:30 51°18.457 2°51.389 8.5 251 14.9 100560 49
2011-07-08 05:37:35 51°18.474 2°51.376 8.8 284 14.9 100560 49
2011-07-08 05:37:39 51°18.487 2°51.366 9.9 255 14.9 100570 50
2011-07-08 05:37:45 51°18.507 2°51.35 8.7 -999 14.9 100570 50
2011-07-08 05:37:50 51°18.523 2°51.337 10.2 256 14.9 100570 50
2011-07-08 05:37:55 51°18.539 2°51.323 7.7 279 14.9 100570 50
2011-07-08 05:37:59 51°18.552 2°51.313 8.9 251 14.9 100570 49
2011-07-08 05:38:04 51°18.569 2°51.299 5.4 286 14.9 100570 49
2011-07-08 05:38:10 51°18.588 2°51.284 9.4 255 14.9 100570 49
2011-07-08 05:38:15 51°18.604 2°51.27 5 283 14.9 100570 49
2011-07-08 05:38:19 51°18.617 2°51.26 9.4 260 15 100560 50
2011-07-08 05:38:24 51°18.634 2°51.247 8.8 285 15 100560 50
2011-07-08 05:38:30 51°18.653 2°51.23 8.3 255 15 100560 50
2011-07-08 05:38:35 51°18.669 2°51.217 8.6 285 15 100560 50
2011-07-08 05:38:39 51°18.682 2°51.206 7.5 257 15 100560 49
2011-07-08 05:38:45 51°18.702 2°51.19 8.7 279 15 100560 49
2011-07-08 05:38:49 51°18.714 2°51.179 10.1 257 15 100560 50
2011-07-08 05:38:55 51°18.734 2°51.163 10.1 280 15 100560 50
2011-07-08 05:38:59 51°18.747 2°51.153 11.2 254 15 100570 49
2011-07-08 05:39:05 51°18.767 2°51.138 11.4 282 15 100570 49
2011-07-08 05:39:10 51°18.783 2°51.124 9.5 255 15 100560 50
2011-07-08 05:39:15 51°18.799 2°51.111 8.7 280 15 100560 50
2011-07-08 05:39:19 51°18.812 2°51.101 6.9 259 15 100560 50
2011-07-08 05:39:25 51°18.832 2°51.086 9.2 279 15 100560 50
2011-07-08 05:39:30 51°18.848 2°51.072 8 257 15 100570 50
2011-07-08 05:39:35 51°18.865 2°51.06 8.2 286 15 100570 50
2011-07-08 05:39:40 51°18.881 2°51.046 5.4 255 15 100560 50
2011-07-08 05:39:45 51°18.897 2°51.033 10 -999 15 100560 50
2011-07-08 05:39:49 51°18.91 2°51.022 10.6 260 15 100560 49
2011-07-08 05:39:55 51°18.93 2°51.008 8.1 281 15 100560 49
2011-07-08 05:39:59 51°18.943 2°50.997 8.4 260 15 100560 50
2011-07-08 05:40:05 51°18.963 2°50.983 7.8 278 15 100560 50
2011-07-08 05:40:10 51°18.979 2°50.97 7.1 262 15 100550 49
2011-07-08 05:40:15 51°18.996 2°50.958 7.2 283 15 100550 49
2011-07-08 05:40:19 51°19.009 2°50.948 8.5 259 15 100560 50
2011-07-08 05:40:25 51°19.029 2°50.934 6.1 285 15 100560 50
2011-07-08 05:40:30 51°19.046 2°50.922 6.2 261 15 100560 49
2011-07-08 05:40:35 51°19.063 2°50.911 6.4 283 15 100560 49
2011-07-08 05:40:39 51°19.077 2°50.902 4.9 266 15 100570 47
2011-07-08 05:40:45 51°19.098 2°50.889 7.3 279 15 100570 47
2011-07-08 05:40:49 51°19.111 2°50.88 6.9 260 15 100560 49
2011-07-08 05:40:55 51°19.132 2°50.867 5.4 283 15 100560 49
2011-07-08 05:40:59 51°19.145 2°50.857 4.9 262 15 100560 49
2011-07-08 05:41:05 51°19.165 2°50.844 6.6 281 15 100560 49
2011-07-08 05:41:10 51°19.182 2°50.833 6.8 252 15 100560 50
2011-07-08 05:41:15 51°19.199 2°50.822 8.1 281 15 100560 50
2011-07-08 05:41:19 51°19.212 2°50.813 9.2 19 15 100570 50
2011-07-08 05:41:25 51°19.233 2°50.801 7.8 281 15 100570 50
2011-07-08 05:41:29 51°19.246 2°50.792 7.2 260 15 100560 50
2011-07-08 05:41:35 51°19.267 2°50.78 8.6 281 15 100560 50
2011-07-08 05:41:39 51°19.281 2°50.772 9 257 15.1 100560 49
2011-07-08 05:41:45 51°19.301 2°50.759 6.1 -999 15.1 100560 49
2011-07-08 05:41:49 51°19.315 2°50.751 6.9 253 15.1 100560 50
2011-07-08 05:41:55 51°19.335 2°50.738 8.2 286 15.1 100560 50
2011-07-08 05:41:59 51°19.348 2°50.73 8.3 256 15.1 100570 50
2011-07-08 05:42:05 51°19.368 2°50.716 9.4 280 15.1 100570 50
2011-07-08 05:42:10 51°19.385 2°50.705 9.9 257 15.1 100560 49
2011-07-08 05:42:15 51°19.402 2°50.694 11.9 280 15.1 100560 49
2011-07-08 05:42:19 51°19.416 2°50.685 10 256 15.1 100560 49
2011-07-08 05:42:25 51°19.436 2°50.671 10.6 282 15.1 100560 49
2011-07-08 05:42:30 51°19.452 2°50.659 5.5 255 15.1 100560 49
2011-07-08 05:42:35 51°19.469 2°50.648 9.6 282 15.1 100560 49
2011-07-08 05:42:39 51°19.482 2°50.638 9.3 259 15.1 100560 50
2011-07-08 05:42:44 51°19.498 2°50.626 10.5 280 15.1 100560 50
2011-07-08 05:42:50 51°19.518 2°50.613 9 254 15.1 100560 50
2011-07-08 05:42:55 51°19.534 2°50.601 9.4 282 15.1 100560 50
2011-07-08 05:42:59 51°19.548 2°50.592 8.2 251 15.2 100560 49
2011-07-08 05:43:05 51°19.567 2°50.578 8.9 277 15.2 100560 49
2011-07-08 05:43:10 51°19.584 2°50.567 12.7 259 15.1 100560 49
2011-07-08 05:43:15 51°19.601 2°50.555 11.6 280 15.1 100560 49
2011-07-08 05:43:19 51°19.614 2°50.546 10.8 257 15.2 100560 47
2011-07-08 05:43:25 51°19.634 2°50.532 8.4 286 15.2 100560 47
2011-07-08 05:43:29 51°19.647 2°50.523 7.1 259 15.2 100560 49
2011-07-08 05:43:35 51°19.668 2°50.509 8.2 283 15.2 100560 49
2011-07-08 05:43:39 51°19.681 2°50.5 8.2 257 15.1 100550 49
2011-07-08 05:43:45 51°19.701 2°50.487 9.6 281 15.1 100550 49
2011-07-08 05:43:49 51°19.715 2°50.479 7.3 259 15.2 100560 49
2011-07-08 05:43:55 51°19.736 2°50.466 8.8 278 15.2 100560 49
2011-07-08 05:43:59 51°19.749 2°50.457 7.6 256 15.1 100560 49
2011-07-08 05:44:05 51°19.77 2°50.445 8.9 285 15.1 100560 49
2011-07-08 05:44:10 51°19.787 2°50.434 7 256 15.1 100570 48
2011-07-08 05:44:15 51°19.804 2°50.424 10.4 282 15.1 100570 48
2011-07-08 05:44:19 51°19.817 2°50.415 8.6 259 15.1 100560 48
2011-07-08 05:44:25 51°19.838 2°50.404 8.9 279 15.1 100560 48
2011-07-08 05:44:30 51°19.855 2°50.393 9.8 257 15.1 100560 49
2011-07-08 05:44:35 51°19.872 2°50.383 8.6 286 15.1 100560 49
2011-07-08 05:44:39 51°19.886 2°50.374 7.7 259 15.1 100570 49
2011-07-08 05:44:44 51°19.903 2°50.364 10.7 281 15.1 100570 49
2011-07-08 05:44:50 51°19.924 2°50.351 9 257 15.1 100560 49
2011-07-08 05:44:55 51°19.941 2°50.341 10 286 15.1 100560 49
2011-07-08 05:44:59 51°19.955 2°50.333 10 260 15.1 100560 49
2011-07-08 05:45:05 51°19.975 2°50.319 8.9 284 15.1 100560 49
2011-07-08 05:45:10 51°19.992 2°50.308 8.5 261 15.1 100560 49
2011-07-08 05:45:15 51°20.009 2°50.297 7 282 15.1 100560 49
2011-07-08 05:45:19 51°20.022 2°50.288 8.6 256 15.1 100560 49
2011-07-08 05:45:25 51°20.043 2°50.275 5.4 285 15.1 100560 49
2011-07-08 05:45:29 51°20.056 2°50.265 8 257 15.1 100560 48
2011-07-08 05:45:35 51°20.076 2°50.252 7.9 286 15.1 100560 48
2011-07-08 05:45:39 51°20.089 2°50.243 9.3 260 15.1 100560 49
2011-07-08 05:45:45 51°20.109 2°50.228 7.6 283 15.1 100560 49
2011-07-08 05:45:49 51°20.122 2°50.219 8.6 253 15.1 100560 50
2011-07-08 05:45:55 51°20.142 2°50.205 8 283 15.1 100560 50
2011-07-08 05:45:59 51°20.155 2°50.195 10.3 258 15.1 100560 48
2011-07-08 05:46:05 51°20.175 2°50.181 9.1 283 15.1 100560 48
2011-07-08 05:46:10 51°20.192 2°50.169 8.2 257 15.2 100570 50
2011-07-08 05:46:15 51°20.208 2°50.157 8.6 284 15.2 100570 50
2011-07-08 05:46:19 51°20.222 2°50.148 8.4 259 15.2 100560 50
2011-07-08 05:46:25 51°20.242 2°50.135 6.4 280 15.2 100560 50
2011-07-08 05:46:30 51°20.259 2°50.124 6.3 261 15.2 100560 49
2011-07-08 05:46:35 51°20.276 2°50.112 7.2 281 15.2 100560 49
2011-07-08 05:46:39 51°20.289 2°50.104 9.1 257 15.2 100560 48
2011-07-08 05:46:44 51°20.306 2°50.092 5.5 279 15.2 100560 48
2011-07-08 05:46:49 51°20.323 2°50.082 7.7 259 15.2 100570 48
2011-07-08 05:46:55 51°20.344 2°50.069 5.9 280 15.2 100570 48
2011-07-08 05:46:59 51°20.358 2°50.061 10.1 254 15.2 100560 49
2011-07-08 05:47:05 51°20.378 2°50.047 11.6 280 15.2 100560 49
2011-07-08 05:47:10 51°20.396 2°50.036 8.3 255 15.2 100560 48
2011-07-08 05:47:15 51°20.413 2°50.026 7.5 281 15.2 100560 48
2011-07-08 05:47:19 51°20.426 2°50.016 9.2 254 15.2 100560 49
2011-07-08 05:47:24 51°20.443 2°50.005 4.6 283 15.2 100560 49
2011-07-08 05:47:29 51°20.461 2°49.995 7 258 15.2 100560 49
2011-07-08 05:47:35 51°20.482 2°49.984 6.1 280 15.2 100560 49
2011-07-08 05:47:39 51°20.496 2°49.977 4.9 265 15.2 100560 48
2011-07-08 05:47:44 51°20.515 2°49.97 5.7 -999 15.2 100560 48
2011-07-08 05:47:50 51°20.537 2°49.962 6.2 265 15.2 100550 50
2011-07-08 05:47:55 51°20.556 2°49.957 4.1 281 15.2 100550 50
2011-07-08 05:47:59 51°20.571 2°49.953 5.7 20 15.2 100560 48
2011-07-08 05:48:04 51°20.59 2°49.95 3.2 285 15.2 100560 48
2011-07-08 05:48:10 51°20.612 2°49.945 2.6 263 15.2 100560 50
2011-07-08 05:48:15 51°20.632 2°49.944 4 79 15.2 100560 50
2011-07-08 05:48:19 51°20.647 2°49.944 3.6 267 15.2 100570 49
2011-07-08 05:48:25 51°20.671 2°49.944 2.9 285 15.2 100570 49
2011-07-08 05:48:30 51°20.69 2°49.944 3 270 15.2 100570 50
2011-07-08 05:48:35 51°20.709 2°49.945 3.3 82 15.2 100570 50
2011-07-08 05:48:39 51°20.725 2°49.947 3.6 21 15.2 100570 47
2011-07-08 05:48:45 51°20.749 2°49.951 3.4 83 15.2 100570 47
2011-07-08 05:48:50 51°20.768 2°49.955 6.1 36 15.2 100570 50
2011-07-08 05:48:55 51°20.788 2°49.962 3.2 74 15.2 100570 50
2011-07-08 05:48:59 51°20.803 2°49.966 5.1 32 15.2 100570 47
2011-07-08 05:49:05 51°20.826 2°49.974 4.4 82 15.2 100570 47
2011-07-08 05:49:10 51°20.846 2°49.98 3.5 21 15.3 100570 49
2011-07-08 05:49:15 51°20.865 2°49.989 4.2 80 15.3 100570 49
2011-07-08 05:49:19 51°20.88 2°49.994 5.1 27 15.2 100570 49
2011-07-08 05:49:24 51°20.899 2°50.002 4.6 82 15.2 100570 49
2011-07-08 05:49:30 51°20.922 2°50.012 5.7 24 15.2 100570 48
2011-07-08 05:49:35 51°20.94 2°50.018 5.8 79 15.2 100570 48
2011-07-08 05:49:39 51°20.955 2°50.024 4.1 26 15.2 100570 49
2011-07-08 05:49:45 51°20.978 2°50.034 3.6 -999 15.2 100570 49
2011-07-08 05:49:49 51°20.993 2°50.04 2.7 21 15.2 100570 49
2011-07-08 05:49:55 51°21.015 2°50.051 1.5 74 15.2 100570 49
2011-07-08 05:49:59 51°21.03 2°50.056 3 22 15.2 100570 49
2011-07-08 05:50:04 51°21.049 2°50.065 2.1 79 15.2 100570 49
2011-07-08 05:50:10 51°21.072 2°50.073 0.3 32 15.2 100570 48
2011-07-08 05:50:14 51°21.087 2°50.079 2.8 77 15.2 100570 48
2011-07-08 05:50:19 51°21.105 2°50.087 0.9 22 15.2 100570 50
2011-07-08 05:50:24 51°21.125 2°50.094 0.8 83 15.2 100570 50
2011-07-08 05:50:30 51°21.147 2°50.103 1.2 31 15.3 100570 49
2011-07-08 05:50:35 51°21.167 2°50.112 1.1 80 15.3 100570 49
2011-07-08 05:50:39 51°21.182 2°50.117 2.7 28 15.3 100570 50
2011-07-08 05:50:45 51°21.205 2°50.127 1.7 75 15.3 100570 50
2011-07-08 05:50:49 51°21.221 2°50.131 2 26 15.3 100570 50
2011-07-08 05:50:55 51°21.243 2°50.14 2.7 86 15.3 100570 50
2011-07-08 05:50:59 51°21.259 2°50.144 2.6 29 15.4 100570 50
2011-07-08 05:51:05 51°21.282 2°50.154 3.1 83 15.4 100570 50
2011-07-08 05:51:10 51°21.301 2°50.16 2.3 29 15.4 100570 50
2011-07-08 05:51:15 51°21.32 2°50.166 3.2 85 15.4 100570 50
2011-07-08 05:51:19 51°21.336 2°50.172 3.6 39 15.4 100570 49
2011-07-08 05:51:25 51°21.359 2°50.18 3.9 78 15.4 100570 49
2011-07-08 05:51:30 51°21.378 2°50.185 2.1 21 15.5 100570 48
2011-07-08 05:51:35 51°21.397 2°50.193 2.1 284 15.5 100570 48
2011-07-08 05:51:39 51°21.413 2°50.198 2.7 24 15.5 100570 50
2011-07-08 05:51:44 51°21.431 2°50.205 3.1 -999 15.5 100570 50
2011-07-08 05:51:50 51°21.454 2°50.214 3.2 22 15.5 100570 49
2011-07-08 05:51:55 51°21.473 2°50.221 4.3 75 15.5 100570 49
2011-07-08 05:51:59 51°21.488 2°50.226 3 27 15.5 100570 48
2011-07-08 05:52:05 51°21.511 2°50.234 2.3 78 15.5 100570 48
2011-07-08 05:52:09 51°21.527 2°50.239 0.1 23 15.5 100570 48
2011-07-08 05:52:15 51°21.549 2°50.245 0.1 83 15.5 100570 48
2011-07-08 05:52:19 51°21.564 2°50.25 -999 25 15.5 100570 48
2011-07-08 05:52:24 51°21.583 2°50.256 -999 78 15.5 100570 48
2011-07-08 05:52:30 51°21.606 2°50.263 -999 39 15.5 100580 49
2011-07-08 05:52:35 51°21.625 2°50.269 -999 78 15.5 100580 49
2011-07-08 05:52:39 51°21.641 2°50.273 -999 25 15.5 100570 49
2011-07-08 05:52:44 51°21.66 2°50.277 -999 287 15.5 100570 49
2011-07-08 05:52:50 51°21.683 2°50.281 -999 262 15.5 100570 49
2011-07-08 05:52:55 51°21.702 2°50.284 -999 282 15.5 100570 49
2011-07-08 05:52:59 51°21.717 2°50.287 -999 269 15.5 100570 49
2011-07-08 05:53:05 51°21.739 2°50.289 -999 286 15.5 100570 49
2011-07-08 05:53:09 51°21.755 2°50.291 -999 269 15.5 100570 49
2011-07-08 05:53:15 51°21.777 2°50.291 6.7 80 15.5 100570 49
2011-07-08 05:53:19 51°21.792 2°50.292 6.1 269 15.5 100570 49
2011-07-08 05:53:25 51°21.815 2°50.29 4.8 285 15.5 100570 49
2011-07-08 05:53:30 51°21.834 2°50.29 2.4 268 15.5 100560 48
2011-07-08 05:53:35 51°21.852 2°50.287 3.7 281 15.5 100560 48
2011-07-08 05:53:39 51°21.868 2°50.286 4.7 266 15.4 100570 48
2011-07-08 05:53:45 51°21.89 2°50.282 6.9 -999 15.4 100570 48
2011-07-08 05:53:50 51°21.908 2°50.28 5.4 264 15.4 100560 48
2011-07-08 05:53:55 51°21.927 2°50.274 5.2 279 15.4 100560 48
2011-07-08 05:53:59 51°21.941 2°50.271 5.9 269 15.4 100560 47
2011-07-08 05:54:04 51°21.96 2°50.266 7.8 281 15.4 100560 47
2011-07-08 05:54:10 51°21.982 2°50.259 3.8 262 15.4 100560 49
2011-07-08 05:54:15 51°22 2°50.254 4.3 286 15.4 100560 49
2011-07-08 05:54:19 51°22.015 2°50.25 7.7 267 15.3 100560 47
2011-07-08 05:54:25 51°22.037 2°50.244 5.6 281 15.3 100560 47
2011-07-08 05:54:30 51°22.055 2°50.238 6.1 270 15.3 100570 48
2011-07-08 05:54:35 51°22.074 2°50.233 7 76 15.3 100570 48
2011-07-08 05:54:39 51°22.089 2°50.229 7.9 257 15.3 100560 47
2011-07-08 05:54:44 51°22.107 2°50.223 6.7 283 15.3 100560 47
2011-07-08 05:54:50 51°22.129 2°50.217 6.6 260 15.3 100570 48
2011-07-08 05:54:55 51°22.147 2°50.211 3.9 281 15.3 100570 48
2011-07-08 05:54:59 51°22.162 2°50.208 4.6 258 15.3 100560 48
2011-07-08 05:55:05 51°22.184 2°50.201 5.3 282 15.3 100560 48
2011-07-08 05:55:10 51°22.202 2°50.196 5.3 262 15.3 100570 49
2011-07-08 05:55:15 51°22.221 2°50.192 5 285 15.3 100570 49
2011-07-08 05:55:19 51°22.236 2°50.188 5 265 15.3 100560 49
2011-07-08 05:55:25 51°22.258 2°50.182 6.7 284 15.3 100560 49
2011-07-08 05:55:30 51°22.276 2°50.179 4.7 265 15.4 100560 48
2011-07-08 05:55:35 51°22.295 2°50.173 6.8 278 15.4 100560 48
2011-07-08 05:55:39 51°22.309 2°50.171 8.5 259 15.4 100560 48
2011-07-08 05:55:45 51°22.332 2°50.165 5.6 285 15.4 100560 48
2011-07-08 05:55:50 51°22.35 2°50.16 7.8 256 15.4 100570 48
2011-07-08 05:55:55 51°22.368 2°50.155 7.4 286 15.4 100570 48
2011-07-08 05:55:59 51°22.383 2°50.15 4.6 262 15.4 100560 48
2011-07-08 05:56:04 51°22.401 2°50.145 4.4 278 15.4 100560 48
2011-07-08 05:56:10 51°22.423 2°50.138 2.6 264 15.4 100570 48
2011-07-08 05:56:15 51°22.442 2°50.135 4.6 282 15.4 100570 48
2011-07-08 05:56:19 51°22.457 2°50.13 4.8 261 15.4 100560 48
2011-07-08 05:56:24 51°22.475 2°50.126 5.9 283 15.4 100560 48
2011-07-08 05:56:30 51°22.497 2°50.12 5.4 259 15.4 100570 48
2011-07-08 05:56:35 51°22.516 2°50.116 5.2 278 15.4 100570 48
2011-07-08 05:56:39 51°22.53 2°50.11 3.8 263 15.4 100560 46
2011-07-08 05:56:45 51°22.552 2°50.106 4.5 279 15.4 100560 46
2011-07-08 05:56:50 51°22.571 2°50.101 4.8 264 15.4 100560 49
2011-07-08 05:56:55 51°22.589 2°50.098 6.2 280 15.4 100560 49
2011-07-08 05:56:59 51°22.604 2°50.095 5.9 262 15.4 100560 48
2011-07-08 05:57:04 51°22.623 2°50.089 5.3 285 15.4 100560 48
2011-07-08 05:57:10 51°22.645 2°50.084 5 267 15.4 100560 49
2011-07-08 05:57:15 51°22.663 2°50.078 3.9 283 15.4 100560 49
2011-07-08 05:57:19 51°22.678 2°50.075 5.6 258 15.4 100560 48
2011-07-08 05:57:25 51°22.699 2°50.069 6.2 279 15.4 100560 48
2011-07-08 05:57:30 51°22.718 2°50.065 5.7 260 15.4 100560 48
2011-07-08 05:57:35 51°22.737 2°50.06 5 279 15.4 100560 48
2011-07-08 05:57:39 51°22.752 2°50.056 5 261 15.4 100560 49
2011-07-08 05:57:45 51°22.774 2°50.05 5.9 281 15.4 100560 49
2011-07-08 05:57:50 51°22.792 2°50.045 7.4 261 15.5 100560 48
2011-07-08 05:57:55 51°22.811 2°50.04 5 278 15.5 100560 48
2011-07-08 05:57:59 51°22.826 2°50.036 4 264 15.5 100560 48
2011-07-08 05:58:05 51°22.848 2°50.03 4.5 279 15.5 100560 48
2011-07-08 05:58:10 51°22.867 2°50.026 5.2 266 15.5 100560 49
2011-07-08 05:58:15 51°22.886 2°50.021 5.9 285 15.5 100560 49
2011-07-08 05:58:19 51°22.9 2°50.017 6.9 269 15.5 100560 49
2011-07-08 05:58:24 51°22.919 2°50.011 6.4 286 15.5 100560 49
2011-07-08 05:58:30 51°22.941 2°50.005 5 266 15.5 100560 48
2011-07-08 05:58:35 51°22.959 2°49.999 4.4 278 15.5 100560 48
2011-07-08 05:58:39 51°22.974 2°49.996 5.8 265 15.5 100560 49
2011-07-08 05:58:45 51°22.996 2°49.989 4.1 286 15.5 100560 49
2011-07-08 05:58:49 51°23.011 2°49.985 4.1 265 15.5 100560 48
2011-07-08 05:58:55 51°23.034 2°49.98 6.5 284 15.5 100560 48
2011-07-08 05:58:59 51°23.049 2°49.976 5.8 268 15.5 100570 48
2011-07-08 05:59:04 51°23.067 2°49.972 4.2 285 15.5 100570 48
2011-07-08 05:59:10 51°23.09 2°49.967 6.1 263 15.5 100560 48
2011-07-08 05:59:15 51°23.108 2°49.962 5.4 281 15.5 100560 48
2011-07-08 05:59:19 51°23.123 2°49.959 4.7 256 15.4 100570 47
2011-07-08 05:59:24 51°23.142 2°49.953 6 284 15.4 100570 47
2011-07-08 05:59:30 51°23.164 2°49.947 4.3 264 15.4 100560 49
2011-07-08 05:59:35 51°23.183 2°49.94 4 282 15.4 100560 49
2011-07-08 05:59:39 51°23.198 2°49.937 7 261 15.4 100570 48
2011-07-08 05:59:45 51°23.219 2°49.93 7.1 283 15.4 100570 48
2011-07-08 05:59:49 51°23.234 2°49.927 4.9 263 15.4 100560 48
2011-07-08 05:59:55 51°23.257 2°49.921 4.4 284 15.4 100560 48
2011-07-08 05:59:59 51°23.272 2°49.918 4.3 262 15.5 100560 48
2011-07-08 06:00:05 51°23.294 2°49.912 7.6 279 15.5 100560 48
2011-07-08 06:00:10 51°23.313 2°49.907 10.7 256 15.4 100560 48
2011-07-08 06:00:15 51°23.332 2°49.902 9.2 278 15.4 100560 48
2011-07-08 06:00:19 51°23.346 2°49.896 4.5 264 15.4 100560 48
2011-07-08 06:00:25 51°23.368 2°49.89 7.4 280 15.4 100560 48
2011-07-08 06:00:30 51°23.387 2°49.884 6.4 261 15.4 100560 48
2011-07-08 06:00:35 51°23.405 2°49.878 6.2 285 15.4 100560 48
2011-07-08 06:00:39 51°23.419 2°49.872 4.6 263 15.4 100550 47
2011-07-08 06:00:44 51°23.438 2°49.866 6.3 284 15.4 100550 47
2011-07-08 06:00:50 51°23.459 2°49.858 5.2 268 15.4 100560 47
2011-07-08 06:00:55 51°23.478 2°49.853 6.1 284 15.4 100560 47
2011-07-08 06:00:59 51°23.492 2°49.847 6.4 268 15.4 100550 48
2011-07-08 06:01:05 51°23.515 2°49.842 5.9 280 15.4 100550 48
2011-07-08 06:01:09 51°23.529 2°49.838 5.7 268 15.4 100560 49
2011-07-08 06:01:15 51°23.552 2°49.832 6.6 279 15.4 100560 49
2011-07-08 06:01:19 51°23.566 2°49.827 4.9 265 15.4 100560 49
2011-07-08 06:01:24 51°23.585 2°49.823 6.5 279 15.4 100560 49
2011-07-08 06:01:30 51°23.607 2°49.816 6.8 261 15.4 100570 48
2011-07-08 06:01:35 51°23.626 2°49.812 5.2 284 15.4 100570 48
2011-07-08 06:01:39 51°23.64 2°49.806 5.9 266 15.4 100560 49
2011-07-08 06:01:45 51°23.662 2°49.801 6.7 274 15.4 100560 49
2011-07-08 06:01:50 51°23.681 2°49.794 4.7 260 15.4 100560 49
2011-07-08 06:01:55 51°23.699 2°49.791 5.8 285 15.4 100560 49
2011-07-08 06:01:59 51°23.714 2°49.785 4 264 15.4 100570 47
2011-07-08 06:02:05 51°23.736 2°49.779 4.1 283 15.4 100570 47
2011-07-08 06:02:10 51°23.754 2°49.774 7.5 263 15.5 100560 49
2011-07-08 06:02:15 51°23.773 2°49.767 6.9 80 15.5 100560 49
2011-07-08 06:02:19 51°23.788 2°49.763 6.1 266 15.5 100560 49
2011-07-08 06:02:25 51°23.81 2°49.757 6.1 282 15.5 100560 49
2011-07-08 06:02:30 51°23.829 2°49.752 6.3 265 15.5 100560 49
2011-07-08 06:02:35 51°23.848 2°49.747 6.6 280 15.5 100560 49
2011-07-08 06:02:39 51°23.863 2°49.742 7.2 263 15.5 100560 49
2011-07-08 06:02:45 51°23.885 2°49.737 6.6 280 15.5 100560 49
2011-07-08 06:02:50 51°23.903 2°49.731 6 264 15.5 100560 48
2011-07-08 06:02:55 51°23.922 2°49.728 6.6 284 15.5 100560 48
2011-07-08 06:02:59 51°23.936 2°49.723 6 266 15.5 100560 47
2011-07-08 06:03:04 51°23.955 2°49.719 6.1 284 15.5 100560 47
2011-07-08 06:03:10 51°23.977 2°49.712 6.6 253 15.5 100550 48
2011-07-08 06:03:15 51°23.996 2°49.707 9.2 280 15.5 100550 48
2011-07-08 06:03:19 51°24.011 2°49.703 7.6 261 15.4 100560 48
2011-07-08 06:03:25 51°24.033 2°49.697 8.8 282 15.4 100560 48
2011-07-08 06:03:30 51°24.051 2°49.692 7.7 263 15.4 100550 49
2011-07-08 06:03:35 51°24.07 2°49.687 7 280 15.4 100550 49
2011-07-08 06:03:39 51°24.085 2°49.683 8.3 260 15.4 100560 48
2011-07-08 06:03:44 51°24.103 2°49.678 5.3 280 15.4 100560 48
2011-07-08 06:03:50 51°24.126 2°49.673 5.4 265 15.4 100550 48
2011-07-08 06:03:55 51°24.144 2°49.667 8.4 278 15.4 100550 48
2011-07-08 06:03:59 51°24.159 2°49.664 7.6 260 15.4 100560 48
2011-07-08 06:04:05 51°24.182 2°49.658 6.8 280 15.4 100560 48
2011-07-08 06:04:10 51°24.201 2°49.653 5.7 263 15.4 100550 47
2011-07-08 06:04:15 51°24.219 2°49.648 6.8 284 15.4 100550 47
2011-07-08 06:04:19 51°24.234 2°49.644 5 265 15.4 100550 49
2011-07-08 06:04:25 51°24.256 2°49.637 4.4 281 15.4 100550 49
2011-07-08 06:04:30 51°24.274 2°49.633 4.6 265 15.4 100550 48
2011-07-08 06:04:35 51°24.293 2°49.627 4.6 280 15.4 100550 48
2011-07-08 06:04:39 51°24.308 2°49.624 5.7 262 15.4 100550 47
2011-07-08 06:04:45 51°24.33 2°49.616 4.1 282 15.4 100550 47
2011-07-08 06:04:50 51°24.348 2°49.611 6.4 256 15.4 100560 49
2011-07-08 06:04:55 51°24.367 2°49.605 7.4 280 15.4 100560 49
2011-07-08 06:04:59 51°24.382 2°49.601 5.4 263 15.4 100560 47
2011-07-08 06:05:04 51°24.4 2°49.596 7.4 284 15.4 100560 47
2011-07-08 06:05:10 51°24.422 2°49.589 6.7 261 15.4 100570 48
2011-07-08 06:05:15 51°24.441 2°49.585 8.8 280 15.4 100570 48
2011-07-08 06:05:19 51°24.456 2°49.578 7.4 269 15.4 100560 49
2011-07-08 06:05:25 51°24.478 2°49.575 7.2 279 15.4 100560 49
2011-07-08 06:05:30 51°24.496 2°49.568 5.2 267 15.5 100560 48
2011-07-08 06:05:35 51°24.514 2°49.565 6.2 279 15.5 100560 48
2011-07-08 06:05:39 51°24.529 2°49.559 5.6 267 15.4 100570 48
2011-07-08 06:05:44 51°24.547 2°49.555 4.2 284 15.4 100570 48
2011-07-08 06:05:50 51°24.569 2°49.548 6 270 15.4 100570 47
2011-07-08 06:05:55 51°24.588 2°49.544 4.4 285 15.4 100570 47
2011-07-08 06:05:59 51°24.602 2°49.538 5 266 15.4 100560 48
2011-07-08 06:06:04 51°24.621 2°49.534 6 281 15.4 100560 48
2011-07-08 06:06:10 51°24.643 2°49.528 7.2 270 15.4 100570 49
2011-07-08 06:06:15 51°24.662 2°49.523 5 281 15.4 100570 49
2011-07-08 06:06:19 51°24.677 2°49.519 8.3 270 15.4 100560 48
2011-07-08 06:06:25 51°24.698 2°49.511 7.1 21 15.4 100560 48
2011-07-08 06:06:30 51°24.717 2°49.506 6.9 269 15.4 100570 49
2011-07-08 06:06:35 51°24.735 2°49.498 5.8 281 15.4 100570 49
2011-07-08 06:06:39 51°24.749 2°49.495 6.2 41 15.4 100570 49
2011-07-08 06:06:45 51°24.771 2°49.487 4.8 285 15.4 100570 49
2011-07-08 06:06:49 51°24.786 2°49.484 5.9 264 15.4 100570 47
2011-07-08 06:06:55 51°24.808 2°49.478 5.1 279 15.4 100570 47
2011-07-08 06:06:59 51°24.823 2°49.474 4.4 260 15.4 100560 47
2011-07-08 06:07:05 51°24.845 2°49.469 6 284 15.4 100560 47
2011-07-08 06:07:10 51°24.864 2°49.463 5.5 263 15.4 100570 49
2011-07-08 06:07:15 51°24.882 2°49.458 5.3 279 15.4 100570 49
2011-07-08 06:07:19 51°24.897 2°49.453 5.3 264 15.4 100570 47
2011-07-08 06:07:25 51°24.92 2°49.447 4.9 279 15.4 100570 47
2011-07-08 06:07:30 51°24.938 2°49.442 7.1 259 15.5 100560 49
2011-07-08 06:07:35 51°24.957 2°49.437 4.4 285 15.5 100560 49
2011-07-08 06:07:39 51°24.972 2°49.433 4.1 264 15.5 100570 49
2011-07-08 06:07:44 51°24.99 2°49.43 6.9 279 15.5 100570 49
2011-07-08 06:07:50 51°25.012 2°49.421 7.8 254 15.5 100570 48
2011-07-08 06:07:55 51°25.031 2°49.418 7.5 282 15.5 100570 48
2011-07-08 06:07:59 51°25.046 2°49.413 7.5 261 15.5 100560 49
2011-07-08 06:08:04 51°25.064 2°49.41 8.8 286 15.5 100560 49
2011-07-08 06:08:10 51°25.086 2°49.403 7.9 260 15.5 100560 48
2011-07-08 06:08:15 51°25.105 2°49.399 6.9 282 15.5 100560 48
2011-07-08 06:08:19 51°25.119 2°49.395 8.2 260 15.5 100560 48
2011-07-08 06:08:25 51°25.141 2°49.389 6.7 285 15.5 100560 48
2011-07-08 06:08:30 51°25.159 2°49.383 10.3 260 15.5 100560 49
2011-07-08 06:08:35 51°25.178 2°49.377 6.8 278 15.5 100560 49
2011-07-08 06:08:39 51°25.192 2°49.372 6.3 262 15.5 100560 48
2011-07-08 06:08:44 51°25.211 2°49.367 10.9 279 15.5 100560 48
2011-07-08 06:08:50 51°25.232 2°49.357 3.5 263 15.5 100570 49
2011-07-08 06:08:55 51°25.251 2°49.352 7.3 284 15.5 100570 49
2011-07-08 06:08:59 51°25.265 2°49.346 8.6 259 15.5 100570 48
2011-07-08 06:09:05 51°25.287 2°49.338 8.6 283 15.5 100570 48
2011-07-08 06:09:10 51°25.305 2°49.329 7.7 257 15.5 100560 49
2011-07-08 06:09:15 51°25.323 2°49.323 8.8 286 15.5 100560 49
2011-07-08 06:09:19 51°25.338 2°49.315 7.6 259 15.5 100560 48
2011-07-08 06:09:25 51°25.36 2°49.308 11.4 285 15.5 100560 48
2011-07-08 06:09:30 51°25.377 2°49.298 7.1 259 15.5 100560 49
2011-07-08 06:09:35 51°25.395 2°49.292 9.3 285 15.5 100560 49
2011-07-08 06:09:39 51°25.41 2°49.285 7.1 258 15.6 100560 48
2011-07-08 06:09:44 51°25.428 2°49.278 8.2 284 15.6 100560 48
2011-07-08 06:09:50 51°25.449 2°49.269 7.1 19 15.6 100560 48
2011-07-08 06:09:55 51°25.467 2°49.262 7.3 280 15.6 100560 48
2011-07-08 06:09:59 51°25.481 2°49.255 7.2 260 15.5 100550 47
2011-07-08 06:10:04 51°25.5 2°49.25 6.5 281 15.5 100550 47
2011-07-08 06:10:10 51°25.521 2°49.238 7.4 256 15.6 100560 49
2011-07-08 06:10:15 51°25.539 2°49.232 6.2 278 15.6 100560 49
2011-07-08 06:10:19 51°25.554 2°49.225 9.6 260 15.6 100560 48
2011-07-08 06:10:25 51°25.575 2°49.216 7.7 279 15.6 100560 48
2011-07-08 06:10:29 51°25.59 2°49.211 6.3 262 15.6 100560 49
2011-07-08 06:10:35 51°25.611 2°49.202 5.8 284 15.6 100560 49
2011-07-08 06:10:39 51°25.626 2°49.197 6.1 262 15.6 100560 48
2011-07-08 06:10:44 51°25.644 2°49.189 6.6 281 15.6 100560 48
2011-07-08 06:10:50 51°25.666 2°49.181 8.2 261 15.6 100570 49
2011-07-08 06:10:55 51°25.684 2°49.173 5.6 279 15.6 100570 49
2011-07-08 06:10:59 51°25.699 2°49.168 7.3 257 15.6 100560 47
2011-07-08 06:11:05 51°25.721 2°49.16 8.8 282 15.6 100560 47
2011-07-08 06:11:10 51°25.739 2°49.152 7.3 261 15.6 100560 49
2011-07-08 06:11:15 51°25.758 2°49.145 5.5 285 15.6 100560 49
2011-07-08 06:11:19 51°25.773 2°49.14 7.3 265 15.6 100570 48
2011-07-08 06:11:25 51°25.795 2°49.133 5.7 283 15.6 100570 48
2011-07-08 06:11:30 51°25.813 2°49.126 5.1 264 15.5 100560 47
2011-07-08 06:11:35 51°25.832 2°49.12 5.7 279 15.5 100560 47
2011-07-08 06:11:39 51°25.846 2°49.114 5.5 263 15.6 100570 48
2011-07-08 06:11:45 51°25.869 2°49.107 7.8 284 15.6 100570 48
2011-07-08 06:11:50 51°25.887 2°49.098 7.7 261 15.5 100570 48
2011-07-08 06:11:55 51°25.905 2°49.092 7.3 284 15.5 100570 48
2011-07-08 06:11:59 51°25.92 2°49.085 7 262 15.5 100560 47
2011-07-08 06:12:04 51°25.938 2°49.078 8.2 281 15.5 100560 47
2011-07-08 06:12:10 51°25.959 2°49.067 6.3 264 15.5 100560 48
2011-07-08 06:12:15 51°25.977 2°49.059 6.6 282 15.5 100560 48
2011-07-08 06:12:19 51°25.992 2°49.053 7.5 260 15.5 100570 47
2011-07-08 06:12:24 51°26.01 2°49.046 7.4 285 15.5 100570 47
2011-07-08 06:12:30 51°26.032 2°49.037 7.1 262 15.5 100570 47
2011-07-08 06:12:35 51°26.05 2°49.03 9 281 15.5 100570 47
2011-07-08 06:12:39 51°26.065 2°49.022 7.7 261 15.5 100570 47
2011-07-08 06:12:45 51°26.087 2°49.015 8.1 285 15.5 100570 47
2011-07-08 06:12:49 51°26.101 2°49.008 7.3 260 15.5 100560 48
2011-07-08 06:12:55 51°26.124 2°49.001 8.4 282 15.5 100560 48
2011-07-08 06:12:59 51°26.138 2°48.993 5.4 261 15.5 100570 47
2011-07-08 06:13:05 51°26.16 2°48.984 8.5 281 15.5 100570 47
2011-07-08 06:13:10 51°26.178 2°48.976 7 260 15.5 100560 48
2011-07-08 06:13:15 51°26.196 2°48.969 6.2 278 15.5 100560 48
2011-07-08 06:13:19 51°26.21 2°48.963 7 262 15.5 100560 48
2011-07-08 06:13:25 51°26.232 2°48.955 5.6 283 15.5 100560 48
2011-07-08 06:13:30 51°26.25 2°48.946 5.3 264 15.5 100570 48
2011-07-08 06:13:35 51°26.269 2°48.94 7.1 285 15.5 100570 48
2011-07-08 06:13:39 51°26.283 2°48.934 8.4 257 15.5 100560 48
2011-07-08 06:13:45 51°26.305 2°48.924 8.6 285 15.5 100560 48
2011-07-08 06:13:50 51°26.323 2°48.918 7.2 255 15.5 100560 49
2011-07-08 06:13:55 51°26.341 2°48.91 7.7 280 15.5 100560 49
2011-07-08 06:13:59 51°26.355 2°48.904 9.1 257 15.5 100560 48
2011-07-08 06:14:04 51°26.373 2°48.897 7.3 280 15.5 100560 48
2011-07-08 06:14:10 51°26.396 2°48.89 9.1 259 15.5 100560 48
2011-07-08 06:14:15 51°26.413 2°48.88 6.5 278 15.5 100560 48
2011-07-08 06:14:19 51°26.428 2°48.876 8.9 257 15.5 100560 48
2011-07-08 06:14:24 51°26.446 2°48.866 8.5 285 15.5 100560 48
2011-07-08 06:14:30 51°26.468 2°48.857 7.8 256 15.6 100570 48
2011-07-08 06:14:35 51°26.486 2°48.848 10.1 279 15.6 100570 48
2011-07-08 06:14:39 51°26.501 2°48.843 8.9 254 15.5 100580 49
2011-07-08 06:14:44 51°26.519 2°48.836 10.3 281 15.5 100580 49
2011-07-08 06:14:50 51°26.539 2°48.824 7.3 261 15.6 100570 48
2011-07-08 06:14:55 51°26.557 2°48.815 7.4 282 15.6 100570 48
2011-07-08 06:14:59 51°26.571 2°48.809 6.7 260 15.6 100560 49
2011-07-08 06:15:05 51°26.592 2°48.798 8.8 282 15.6 100560 49
2011-07-08 06:15:10 51°26.61 2°48.791 5.8 263 15.5 100570 48
2011-07-08 06:15:15 51°26.628 2°48.781 10 282 15.5 100570 48
2011-07-08 06:15:19 51°26.643 2°48.776 9.6 259 15.5 100560 47
2011-07-08 06:15:24 51°26.661 2°48.768 8 277 15.5 100560 47
2011-07-08 06:15:30 51°26.682 2°48.758 8.9 260 15.5 100570 49
2011-07-08 06:15:35 51°26.7 2°48.752 7.9 279 15.5 100570 49
2011-07-08 06:15:40 51°26.718 2°48.742 7.7 258 15.5 100570 48
2011-07-08 06:15:45 51°26.736 2°48.733 9.4 278 15.5 100570 48
2011-07-08 06:15:50 51°26.754 2°48.724 7.7 261 15.5 100570 48
2011-07-08 06:15:55 51°26.772 2°48.716 8.6 281 15.5 100570 48
2011-07-08 06:15:59 51°26.786 2°48.709 8.2 256 15.5 100560 48
2011-07-08 06:16:05 51°26.808 2°48.7 8 279 15.5 100560 48
2011-07-08 06:16:10 51°26.826 2°48.692 5.3 263 15.5 100560 48
2011-07-08 06:16:15 51°26.844 2°48.686 6.6 285 15.5 100560 48
2011-07-08 06:16:19 51°26.858 2°48.678 4.4 263 15.5 100570 49
2011-07-08 06:16:25 51°26.88 2°48.671 5.7 281 15.5 100570 49
2011-07-08 06:16:30 51°26.898 2°48.662 6.6 260 15.5 100560 48
2011-07-08 06:16:35 51°26.916 2°48.657 7.4 280 15.5 100560 48
2011-07-08 06:16:39 51°26.931 2°48.651 8.9 259 15.5 100570 49
2011-07-08 06:16:44 51°26.948 2°48.643 7 279 15.5 100570 49
2011-07-08 06:16:50 51°26.97 2°48.634 7.8 253 15.5 100560 48
2011-07-08 06:16:55 51°26.988 2°48.625 9 281 15.5 100560 48
2011-07-08 06:16:59 51°27.003 2°48.62 9.9 257 15.5 100570 48
2011-07-08 06:17:04 51°27.02 2°48.612 4.4 280 15.5 100570 48
2011-07-08 06:17:10 51°27.042 2°48.602 7.9 257 15.5 100560 49
2011-07-08 06:17:15 51°27.06 2°48.595 9 278 15.5 100560 49
2011-07-08 06:17:19 51°27.074 2°48.588 6.4 262 15.5 100570 48
2011-07-08 06:17:25 51°27.096 2°48.579 8 281 15.5 100570 48
2011-07-08 06:17:30 51°27.114 2°48.57 6 259 15.5 100560 49
2011-07-08 06:17:35 51°27.132 2°48.563 10.2 283 15.5 100560 49
2011-07-08 06:17:39 51°27.147 2°48.557 7.3 253 15.5 100560 49
2011-07-08 06:17:44 51°27.165 2°48.548 6.9 280 15.5 100560 49
2011-07-08 06:17:50 51°27.187 2°48.54 8.1 258 15.5 100570 48
2011-07-08 06:17:55 51°27.205 2°48.532 7.9 284 15.5 100570 48
2011-07-08 06:17:59 51°27.219 2°48.525 6.6 259 15.5 100560 46
2011-07-08 06:18:05 51°27.241 2°48.515 8.1 284 15.5 100560 46
2011-07-08 06:18:10 51°27.259 2°48.507 7.3 255 15.5 100570 48
2011-07-08 06:18:15 51°27.276 2°48.498 9.6 285 15.5 100570 48
2011-07-08 06:18:19 51°27.291 2°48.492 8.6 255 15.5 100560 48
2011-07-08 06:18:25 51°27.312 2°48.481 8.9 281 15.5 100560 48
2011-07-08 06:18:30 51°27.33 2°48.474 9.4 255 15.5 100570 49
2011-07-08 06:18:35 51°27.348 2°48.464 9.3 281 15.5 100570 49
2011-07-08 06:18:39 51°27.362 2°48.459 8.4 254 15.5 100560 48
2011-07-08 06:18:44 51°27.38 2°48.45 8.7 283 15.5 100560 48
2011-07-08 06:18:50 51°27.402 2°48.441 8.5 256 15.5 100560 49
2011-07-08 06:18:55 51°27.42 2°48.434 9.5 286 15.5 100560 49
2011-07-08 06:18:59 51°27.434 2°48.428 5.5 257 15.5 100570 49
2011-07-08 06:19:04 51°27.451 2°48.419 8.5 284 15.5 100570 49
2011-07-08 06:19:10 51°27.473 2°48.411 12.8 258 15.5 100560 49
2011-07-08 06:19:15 51°27.491 2°48.404 7.4 285 15.5 100560 49
2011-07-08 06:19:19 51°27.505 2°48.398 8.3 258 15.6 100560 48
2011-07-08 06:19:25 51°27.527 2°48.389 12.3 285 15.6 100560 48
2011-07-08 06:19:29 51°27.541 2°48.383 7.7 258 15.5 100560 49
2011-07-08 06:19:35 51°27.563 2°48.375 7.2 279 15.5 100560 49
2011-07-08 06:19:39 51°27.578 2°48.369 7.3 261 15.6 100570 48
2011-07-08 06:19:44 51°27.595 2°48.361 5 280 15.6 100570 48
2011-07-08 06:19:50 51°27.617 2°48.353 4.8 263 15.5 100570 49
2011-07-08 06:19:55 51°27.635 2°48.346 9.7 283 15.5 100570 49
2011-07-08 06:19:59 51°27.649 2°48.34 7.3 252 15.5 100570 49
2011-07-08 06:20:05 51°27.671 2°48.332 6.9 278 15.5 100570 49
2011-07-08 06:20:10 51°27.689 2°48.323 8.9 255 15.5 100570 49
2011-07-08 06:20:15 51°27.707 2°48.316 10.9 286 15.5 100570 49
2011-07-08 06:20:19 51°27.722 2°48.31 10.8 261 15.5 100560 48
2011-07-08 06:20:25 51°27.743 2°48.3 8.1 279 15.5 100560 48
2011-07-08 06:20:30 51°27.762 2°48.292 10.8 260 15.5 100560 49
2011-07-08 06:20:35 51°27.779 2°48.284 8 284 15.5 100560 49
2011-07-08 06:20:39 51°27.794 2°48.279 10.7 256 15.5 100560 48
2011-07-08 06:20:45 51°27.816 2°48.269 9.7 280 15.5 100560 48
2011-07-08 06:20:50 51°27.834 2°48.262 8.5 254 15.5 100570 49
2011-07-08 06:20:55 51°27.852 2°48.252 8.2 281 15.5 100570 49
2011-07-08 06:20:59 51°27.866 2°48.246 7.1 256 15.5 100570 48
2011-07-08 06:21:04 51°27.884 2°48.24 9.2 285 15.5 100570 48
2011-07-08 06:21:10 51°27.906 2°48.23 4.4 253 15.5 100560 49
2011-07-08 06:21:15 51°27.924 2°48.224 10.1 281 15.5 100560 49
2011-07-08 06:21:19 51°27.938 2°48.217 9.5 257 15.5 100550 49
2011-07-08 06:21:24 51°27.957 2°48.21 9.3 282 15.5 100550 49
2011-07-08 06:21:30 51°27.978 2°48.201 12.6 258 15.5 100560 48
2011-07-08 06:21:35 51°27.996 2°48.193 9.9 286 15.5 100560 48
2011-07-08 06:21:39 51°28.011 2°48.188 8.3 258 15.5 100560 49
2011-07-08 06:21:45 51°28.032 2°48.179 9.6 281 15.5 100560 49
2011-07-08 06:21:49 51°28.047 2°48.174 7 263 15.5 100560 49
2011-07-08 06:21:55 51°28.069 2°48.166 7.9 280 15.5 100560 49
2011-07-08 06:21:59 51°28.083 2°48.16 7.2 261 15.5 100570 48
2011-07-08 06:22:05 51°28.105 2°48.152 8.9 282 15.5 100570 48
2011-07-08 06:22:10 51°28.124 2°48.144 10.4 261 15.5 100570 48
2011-07-08 06:22:15 51°28.142 2°48.136 9.9 283 15.5 100570 48
2011-07-08 06:22:19 51°28.156 2°48.127 7.2 262 15.4 100570 48
2011-07-08 06:22:25 51°28.178 2°48.118 7.7 280 15.4 100570 48
2011-07-08 06:22:30 51°28.195 2°48.108 7.2 261 15.4 100570 47
2011-07-08 06:22:35 51°28.214 2°48.102 8.1 285 15.4 100570 47
2011-07-08 06:22:39 51°28.228 2°48.093 8.4 259 15.4 100570 48
2011-07-08 06:22:45 51°28.25 2°48.084 7.8 280 15.4 100570 48
2011-07-08 06:22:50 51°28.267 2°48.075 6.5 252 15.4 100560 48
2011-07-08 06:22:55 51°28.285 2°48.067 8.2 284 15.4 100560 48
2011-07-08 06:22:59 51°28.3 2°48.061 10.5 257 15.4 100560 48
2011-07-08 06:23:04 51°28.318 2°48.054 8.8 283 15.4 100560 48
2011-07-08 06:23:10 51°28.339 2°48.045 7.3 261 15.4 100570 49
2011-07-08 06:23:15 51°28.358 2°48.04 8.6 279 15.4 100570 49
2011-07-08 06:23:19 51°28.373 2°48.034 8.8 257 15.4 100550 47
2011-07-08 06:23:24 51°28.391 2°48.027 6.7 283 15.4 100550 47
2011-07-08 06:23:30 51°28.413 2°48.018 7.9 256 15.4 100550 49
2011-07-08 06:23:35 51°28.432 2°48.012 8.1 278 15.4 100550 49
2011-07-08 06:23:39 51°28.446 2°48.005 12.1 259 15.5 100560 49
2011-07-08 06:23:44 51°28.464 2°47.999 7.5 285 15.5 100560 49
2011-07-08 06:23:50 51°28.486 2°47.99 7.1 263 15.5 100560 49
2011-07-08 06:23:55 51°28.504 2°47.985 5.6 282 15.5 100560 49
2011-07-08 06:23:59 51°28.518 2°47.978 6.9 267 15.4 100560 49
2011-07-08 06:24:05 51°28.54 2°47.971 6.6 283 15.4 100560 49
2011-07-08 06:24:10 51°28.558 2°47.964 4.4 262 15.4 100570 49
2011-07-08 06:24:15 51°28.576 2°47.958 5.1 279 15.4 100570 49
2011-07-08 06:24:19 51°28.591 2°47.954 7.8 256 15.4 100570 47
2011-07-08 06:24:24 51°28.609 2°47.948 8 281 15.4 100570 47
2011-07-08 06:24:30 51°28.631 2°47.941 7.9 253 15.4 100570 48
2011-07-08 06:24:35 51°28.649 2°47.934 8.2 283 15.4 100570 48
2011-07-08 06:24:40 51°28.667 2°47.93 9.7 257 15.4 100560 48
2011-07-08 06:24:45 51°28.685 2°47.922 11 284 15.4 100560 48
2011-07-08 06:24:50 51°28.704 2°47.918 11.5 256 15.4 100570 48
2011-07-08 06:24:55 51°28.722 2°47.909 9.5 280 15.4 100570 48
2011-07-08 06:24:59 51°28.737 2°47.904 10.4 257 15.4 100560 49
2011-07-08 06:25:05 51°28.758 2°47.895 8.9 278 15.4 100560 49
2011-07-08 06:25:10 51°28.777 2°47.89 9.2 259 15.4 100560 48
2011-07-08 06:25:15 51°28.794 2°47.882 9.3 283 15.4 100560 48
2011-07-08 06:25:19 51°28.809 2°47.877 7.6 259 15.4 100550 48
2011-07-08 06:25:25 51°28.831 2°47.869 9 282 15.4 100550 48
2011-07-08 06:25:30 51°28.849 2°47.862 7.3 260 15.4 100550 48
2011-07-08 06:25:35 51°28.867 2°47.856 7.2 277 15.4 100550 48
2011-07-08 06:25:39 51°28.881 2°47.85 6.1 261 15.4 100550 48
2011-07-08 06:25:44 51°28.899 2°47.843 6.6 285 15.4 100550 48
2011-07-08 06:25:50 51°28.922 2°47.836 7.3 262 15.4 100560 48
2011-07-08 06:25:55 51°28.94 2°47.828 7 285 15.4 100560 48
2011-07-08 06:25:59 51°28.954 2°47.821 9.6 257 15.4 100560 47
2011-07-08 06:26:04 51°28.972 2°47.813 8.5 284 15.4 100560 47
2011-07-08 06:26:10 51°28.993 2°47.803 8.4 254 15.4 100550 49
2011-07-08 06:26:15 51°29.012 2°47.796 11.8 280 15.4 100550 49
2011-07-08 06:26:19 51°29.025 2°47.787 8.1 260 15.3 100550 48
2011-07-08 06:26:25 51°29.047 2°47.778 8.7 284 15.3 100550 48
2011-07-08 06:26:30 51°29.064 2°47.77 9.4 259 15.4 100560 47
2011-07-08 06:26:35 51°29.082 2°47.761 12.3 278 15.4 100560 47
2011-07-08 06:26:39 51°29.097 2°47.755 8.7 260 15.3 100550 48
2011-07-08 06:26:44 51°29.114 2°47.745 6.7 278 15.3 100550 48
2011-07-08 06:26:50 51°29.136 2°47.736 7.7 261 15.4 100550 48
2011-07-08 06:26:55 51°29.154 2°47.727 5.7 280 15.4 100550 48
2011-07-08 06:27:00 51°29.172 2°47.719 7 263 15.3 100550 48
2011-07-08 06:27:05 51°29.19 2°47.71 7.6 277 15.3 100550 48
2011-07-08 06:27:10 51°29.207 2°47.701 7.3 261 15.4 100560 48
2011-07-08 06:27:15 51°29.225 2°47.693 12.7 282 15.4 100560 48
2011-07-08 06:27:19 51°29.239 2°47.685 6.9 259 15.3 100550 48
2011-07-08 06:27:25 51°29.261 2°47.678 8.3 284 15.3 100550 48
2011-07-08 06:27:30 51°29.278 2°47.669 5 264 15.3 100560 48
2011-07-08 06:27:35 51°29.297 2°47.663 6.5 281 15.3 100560 48
2011-07-08 06:27:39 51°29.311 2°47.655 4.7 263 15.3 100550 48
2011-07-08 06:27:44 51°29.328 2°47.647 5.6 280 15.3 100550 48
2011-07-08 06:27:50 51°29.35 2°47.638 8.2 260 15.3 100560 47
2011-07-08 06:27:55 51°29.367 2°47.629 7.3 279 15.3 100560 47
2011-07-08 06:27:59 51°29.382 2°47.624 9 259 15.3 100560 48
2011-07-08 06:28:04 51°29.4 2°47.617 5.4 283 15.3 100560 48
2011-07-08 06:28:10 51°29.421 2°47.608 4.5 264 15.4 100560 49
2011-07-08 06:28:15 51°29.439 2°47.601 5.9 284 15.4 100560 49
2011-07-08 06:28:19 51°29.453 2°47.597 5.9 263 15.4 100550 49
2011-07-08 06:28:24 51°29.471 2°47.589 8 278 15.4 100550 49
2011-07-08 06:28:30 51°29.493 2°47.581 7.3 253 15.4 100570 49
2011-07-08 06:28:35 51°29.511 2°47.572 9.1 284 15.4 100570 49
2011-07-08 06:28:39 51°29.526 2°47.566 9 256 15.4 100560 47
2011-07-08 06:28:45 51°29.548 2°47.556 10.5 283 15.4 100560 47
2011-07-08 06:28:50 51°29.566 2°47.548 9.7 257 15.4 100560 48
2011-07-08 06:28:55 51°29.584 2°47.54 11.3 286 15.4 100560 48
2011-07-08 06:28:59 51°29.599 2°47.534 10.8 260 15.4 100550 48
2011-07-08 06:29:05 51°29.62 2°47.524 8.7 284 15.4 100550 48
2011-07-08 06:29:10 51°29.638 2°47.518 7.9 260 15.4 100550 49
2011-07-08 06:29:15 51°29.656 2°47.509 7.5 284 15.4 100550 49
2011-07-08 06:29:19 51°29.671 2°47.505 8 261 15.4 100550 49
2011-07-08 06:29:25 51°29.692 2°47.494 7.6 286 15.4 100550 49
2011-07-08 06:29:30 51°29.711 2°47.488 6.9 258 15.4 100560 48
2011-07-08 06:29:35 51°29.728 2°47.479 7.5 280 15.4 100560 48
2011-07-08 06:29:39 51°29.743 2°47.474 7.3 254 15.4 100560 48